User: anonymous
Location: Nebula Knoll Observatory
(43.6666°N, 71.0000°W)
Time: 18:54:04
(UTC-04:00)
Language:

SeaSat 1 - Orbit

View from above orbital plane
View from above orbital plane
View from above satellite
View from above satellite

Ground track
Ground track

The orbit data is extracted from the following two-line orbital elements,

1 10967U 78064A   14210.11906196  .00000065  00000-0  60164-4 0  3434
2 10967 107.9915 258.6316 0002843 276.9465 154.7330 14.43048295894525
Epoch (UTC): 29 July 2014 02:51:26
Eccentricity: 0.0002843
inclination: 107.9915°
perigee height: 746 km
apogee height: 750 km
right ascension of ascending node: 258.6316°
argument of perigee: 276.9465°
revolutions per day: 14.43048295
mean anomaly at epoch: 154.7330°
orbit number at epoch: 89452

The dashed part of the orbit path shows where the satellite is in the earth's shadow,  

DLR